Torna al catalogo

STARLINK-2500

AttivoComunicazioniVLEO
NORAD 48485·PAYLOAD·🇺🇸 United States

Lanciato May 9, 2021 da Cape Canaveral Space Force Station

Loading…

Prossimi Passaggi (prossime 24 ore)

TLE

AggiornatoSource: CelesTrak SupGP

Epoca: Sep 14, 2026, 22:00 UTC

1 48485C 21040BK  26257.91715278  .00011005  00000+0  35386-3 0  2579
2 48485  53.1586  33.1102 0001218  87.6084  96.7995 15.31698407    14

Traccia STARLINK-2500 in tempo reale con AllMySat

Download on the App Store